Regional Weather Roundup
Issued by NWS Northern Indiana

Home | Current Version | Previous Version | Graphics & Text | Print | Product List | Glossary On
Versions: 1 2 3 4 5 6 7 8 9 10 11 12 13 14 15 16 17 18 19 20 21 22 23 24 25 26 27 28 29 30 31 32 33 34 35 36 37 38 39 40 41 42 43 44 45 46 47 48 49 50
000
ASUS43 KIWX 172210
RWRIWX

KIWX WEATHER ROUNDUP
NATIONAL WEATHER SERVICE NORTHERN INDIANA
600 PM EDT FRI APR 17 2015

NOTE: "FAIR" INDICATES FEW OR NO CLOUDS BELOW 12,000 FEET WITH NO
SIGNIFICANT WEATHER AND/OR OBSTRUCTIONS TO VISIBILITY.

* THESE STATIONS ARE NOT UNDER NWS QUALITY CONTROL. THEY ALSO MAY NOT
  REPORT WEATHER SUCH AS PRECIPITATION OR FOG.

INZ001>027-172300-
NORTHERN INDIANA

CITY           SKY/WX    TMP DP  RH WIND       PRES   REMARKS
GARY*          PTSUNNY   72  37  28 E9        30.01F
VALPARAISO     PTSUNNY   75  43  31 W5        30.02S
MICHIGAN CITY* SUNNY     73  36  25 NW5       30.02S
KNOX*          CLOUDY    73   9   8 NW8       30.01S
SOUTH BEND     MOSUNNY   76  41  28 NW9       30.03S
ELKHART*       SUNNY     75  37  25 W9        30.02S
GOSHEN         MOSUNNY   72  46  39 W8        30.01S
MONTICELLO*    MOSUNNY   74  50  42 S3        30.01F
LOGANSPORT*    MOSUNNY   73  43  33 S6        30.03F
ROCHESTER*     MOSUNNY   79  43  27 W6        30.02S
WARSAW*        MOSUNNY   72  46  40 NW6       30.02R
ANGOLA*        SUNNY     73  45  35 NW7       30.01S
FORT WAYNE     PTSUNNY   76  42  29 W7        30.02F
HUNTINGTON*    MOSUNNY   74  36  24 NW8       30.02S
PERU/GRISSOM   MOSUNNY   74  48  38 W6        30.02F
MARION*        MOSUNNY   73  37  27 W3        30.04S

$$
INZ028>050-172300-
CENTRAL INDIANA

CITY           SKY/WX    TMP DP  RH WIND       PRES   REMARKS
LAFAYETTE      MOSUNNY   74  43  32 CALM      30.02F
KOKOMO*        MOSUNNY   75  46  35 W6        30.03S
MUNCIE*        PTSUNNY   73  39  29 CALM      30.03F
INDIANAPOLIS   PTSUNNY   75  42  30 VRB5      30.02F

$$
MIZ043>046-050>051-056>058-064>065-071>073-077>080-172300-
SOUTHWEST LOWER MICHIGAN

CITY           SKY/WX    TMP DP  RH WIND       PRES   REMARKS
BATTLE CREEK   SUNNY     75  39  27 NW13G18   30.01S
BENTON HARBOR  SUNNY     70  42  36 W5        30.02F
COLDWATER*     PTSUNNY   74  40  29 NW8       30.00F
HILLSDALE*     PTSUNNY   73  40  30 W7        30.01S
HOLLAND        SUNNY     70  43  37 W7        30.03S
GRAND RAPIDS   MOSUNNY   74  39  28 W15       30.01S
KALAMAZOO      SUNNY     75  41  29 NW13G18   30.01S
STURGIS*       MOSUNNY   73  45  35 CALM      30.01S
THREE RIVERS*  FAIR      74  44  34 W8        30.02S

$$
OHZ001>008-015>018-024>025-172300-
NORTHWEST OHIO

CITY           SKY/WX    TMP DP  RH WIND       PRES   REMARKS
WAUSEON*       FAIR      77  37  24 NW13      30.00S
FINDLAY        SUNNY     74  31  20 SW5       30.01F
TOLEDO EXPRESS MOSUNNY   76  38  25 W14G21    29.99F
TOLEDO METCALF SUNNY     75  37  25 SW12      30.00F
LIMA           MOSUNNY   74  36  25 CALM      30.03S

$$
AND FOR LAKE MICHIGAN COASTAL AND OPEN LAKE BUOY OBSERVATIONS

STATION/POSITION TEMP    WIND        PRES    VSBY  WAVE
                 AIR SEA DIR/SP/G                  HT/PER
                 (F)     (DEG/KT/KT) (MB)    (MI)  (FT/S)
CALUMET HARBOR            80/  5/  8   N/A
MICHIGAN CITY     63      30/  9/ 10   N/A
BURNS HARBOR      58      80/ 10/ 11 1016.9S
SAINT JOSEPH      69      CALM  /  1 1016.9F
MICHIGAN CITY     55 48                N/A           0

$$
&&



USA.gov is the U.S. government's official web portal to all federal, state and local government web resources and services.